Home   Weather   Wiesbaden   Past weeks

Flag for Germany Past Weather in Wiesbaden, Hesse, Germany — Yesterday and Last 2 Weeks

Now
45 °F

Partly sunny.


Feels Like: 39 °F
Forecast: 35 / 48 °F
Wind: 14 mph from Northwest

Location: Wiesbaden Airport

Current Time: Feb 24, 2017 at 1:50:57 pm

Latest Report: Feb 24, 2017 at 12:58 pm


Visibility: N/A

Pressure: 29.93 "Hg

Humidity: 53%

Dew Point: 29 °F

Location of WiesbadenLocation

Past Weather in Wiesbaden — Graph

°F

Wiesbaden Temperature Yesterday

Maximum temperature yesterday: 50 °F (at 12:58 pm)
Minimum temperature yesterday: 46 °F (at 10:58 pm)
Average temperature yesterday: 49 °F

High & Low Weather Summary for the Past Weeks

 TemperatureHumidityPressure
High54 °F (Feb 21, 1:01 pm)100% (Feb 16, 7:22 am)30.62 "Hg (Feb 16, 7:22 am)
Low27 °F (Feb 15, 3:58 am)43% (Feb 14, 2:58 pm)29.43 "Hg (Feb 23, 5:58 pm)
Average43 °F80%30.14 "Hg
* Reported Feb 9 12:58 pm — Feb 24 12:35 pm, Wiesbaden, Weather by CustomWeather, © 2017

Note: Actual official high and low records may vary slightly from our data, if they occured in-between our weather recording intervals... More about our weather records

Advertising

Wiesbaden Weather History for the Previous 24 Hours

Scroll right to see more
 ConditionsComfort  
Time TempWeatherWind HumidityBarometerVisibility
12:35 pm
Fri, Feb 24
46 °FPartly sunny.14 mph53%29.90 "HgN/A
11:58 am46 °FPartly sunny.10 mph57%29.91 "HgN/A
10:58 am45 °FMostly cloudy.14 mph63%29.90 "HgN/A
10:34 am43 °FOvercast.15 mph66%29.88 "HgN/A
9:58 am41 °FOvercast.15 mph76%29.88 "HgN/A
9:13 am41 °FPartly sunny.9 mph70%29.85 "HgN/A
8:58 am41 °FSunny.10 mph76%29.87 "HgN/A
7:58 am38 °FPassing clouds.6 mph88%29.84 "HgN/A
7:40 am37 °FBroken clouds.3 mph87%29.81 "HgN/A
7:37 am37 °FBroken clouds.5 mph87%29.81 "HgN/A
7:13 am39 °FLight rain. Partly cloudy.9 mph81%29.80 "HgN/A
7:03 am39 °FLight rain. Passing clouds.7 mph81%29.79 "HgN/A
6:58 am39 °FPartly cloudy.6 mph81%29.80 "HgN/A
6:24 am39 °FPassing clouds.13 mph81%29.77 "HgN/A
6:15 am39 °FLight rain. Passing clouds.9 mph81%29.76 "HgN/A
5:58 am41 °FLight rain. Passing clouds.14 mph70%29.78 "HgN/A
5:27 am41 °FLight rain. Passing clouds.16 mph70%29.73 "HgN/A
5:13 am41 °FPartly cloudy.13 mph70%29.73 "HgN/A
5:03 am41 °FLight rain. Partly cloudy.14 mph70%29.72 "HgN/A
4:58 am43 °FPassing clouds.15 mph66%29.73 "HgN/A
3:58 am42 °FMostly cloudy.22 mph68%29.68 "HgN/A
2:58 am43 °FPassing clouds.16 mph66%29.64 "HgN/A
1:58 am43 °FPassing clouds.22 mph71%29.57 "HgN/A
12:58 am46 °FOvercast.23 mph57%29.52 "HgN/A
11:58 pm
Thu, Feb 23
46 °FPassing clouds.24 mph58%29.49 "HgN/A
10:58 pm46 °FOvercast.26 mph61%29.49 "HgN/A
9:58 pm46 °FPassing clouds.23 mph66%29.48 "HgN/A
9:34 pm48 °FLight rain. Passing clouds.21 mph62%29.46 "HgN/A
9:05 pm48 °FPartly cloudy.28 mph62%29.45 "HgN/A
8:58 pm48 °FLight rain. Passing clouds.26 mph58%29.46 "HgN/A
7:58 pm48 °FPassing clouds.28 mph63%29.44 "HgN/A
6:58 pm50 °FOvercast.24 mph67%29.44 "HgN/A
6:35 pm48 °FOvercast.17 mph82%29.43 "HgN/A
6:22 pm50 °FLight rain. Overcast.31 mph71%29.43 "Hg5 mi
5:58 pm50 °FMostly cloudy.25 mph71%29.43 "HgN/A
4:58 pm50 °FOvercast.25 mph71%29.44 "HgN/A
4:17 pm48 °FOvercast.22 mph76%29.45 "HgN/A
3:58 pm50 °FOvercast.17 mph69%29.46 "HgN/A
3:35 pm50 °FOvercast.16 mph71%29.46 "HgN/A
3:22 pm50 °FOvercast.22 mph67%29.47 "HgN/A
3:04 pm50 °FOvercast.20 mph67%29.49 "HgN/A
2:58 pm50 °FOvercast.23 mph67%29.50 "HgN/A
1:58 pm50 °FOvercast.18 mph67%29.53 "HgN/A
Weather by CustomWeather, © 2017

See weather overviewHow to use our weather pages